Location: Casteau
(50.5142°N, 4.0161°E)
Time: 05:56:15
(UTC+00:00)

Vanguard 1 Rocket - Pass Details

Date: 31 July 2021
Orbit: 650 x 4226 km, 34.3° (Epoch: 21 September)

Event Time Altitude Azimuth Distance (km) Brightness Sun altitude
Rises 07:58:28 0° 203° (SSW) 8,278 12.2 34.1°
Reaches altitude 10° 08:06:53 10° 191° (S) 6,841 12.0 35.4°
Maximum altitude 08:19:56 21° 152° (SSE) 4,930 12.0 37.4°
Drops below altitude 10° 08:29:14 10° 112° (ESE) 4,755 12.3 38.8°
Sets 08:33:28 0° 96° (E) 5,223 12.1 39.4°
